[[{"header":{"parameterUnit":"m.s-1","parameterCategory":2,"la1":30.2991,"la2":30.254,"lo1":-89.0895,"lo2":-89.0444,"dy":0.0017,"dx":0.0017,"nx":28,"ny":28,"refTime":"2025-05-20T03:00:00:Z","depth":"0","parameterNumber":2,"parameterNumberName":"U-component_of_CURRENTS"},"data":[0,0,0,0,0,0,0,0,0,0,0,0,0,0,0,0,0,0,0,0,0,0,0,0,0,0,0,0,0,0,0,0,0,0,0,0,0,0,0,0,0,0,0,0,0,0,0,0,0,0,0,0,0,0,0,0,0,0,0.1673,0.1672,0,0.1708,0.1709,0.171,0.1755,0.1755,0.1755,0.1755,0.1756,0.1756,0.1757,0,0,0,0,0,0,0,0,0,0,0,0,0,0.1604,0.1606,0.1673,0.1672,0.1672,0.1708,0.1709,0.171,0.1755,0.1755,0.1755,0.1755,0.1756,0.1756,0.1757,0,0,0,0,0,0,0,0,0,0,0,0,0,0.1644,0.1607,0.1673,0.1693,0.1694,0.1707,0.1709,0.1711,0.1755,0.1755,0.1755,0.1755,0.1756,0.1756,0.1757,0.1758,0,0,0.1757,0.1757,0,0,0,0,0,0,0,0,0.1642,0.1648,0.169,0.1691,0.1693,0.172,0.1685,0.1722,0.1755,0.1741,0.1755,0.1755,0.1736,0.1737,0.1756,0.1758,0.1758,0.1757,0.1757,0.1757,0.1757,0,0,0,0,0,0,0,0.1639,0.1646,0.1695,0.169,0.1691,0.1685,0.1693,0.1693,0.1744,0.1742,0.1743,0.1734,0.1737,0.1756,0.1756,0.1758,0.1757,0.1757,0.1757,0.1757,0.1807,0.1808,0,0,0,0,0,0,0.1621,0.1644,0.1694,0.1695,0.1658,0.1686,0.1694,0.1718,0.1745,0.1746,0.1734,0.1736,0.1756,0.1756,0.1757,0.1784,0.1757,0.1757,0.1757,0.1805,0.1807,0.1808,0,0,0,0,0,0,0.162,0.1626,0.1692,0.1661,0.1668,0.1687,0.1713,0.1719,0.1734,0.1737,0.174,0.1742,0.1756,0.1756,0.1757,0.1783,0.1757,0.1757,0.1804,0.1806,0.1808,0.1821,0,0,0,0,0,0,0.1618,0.1627,0.1657,0.1662,0.1669,0.1719,0.1713,0.1719,0.1724,0.1727,0.1745,0.1745,0.1756,0.1757,0.1757,0.1782,0.1757,0.1802,0.1805,0.1807,0.1819,0.1823,0.1827,0,0,0,0,0,0.1617,0.1669,0.1659,0.1665,0.1705,0.172,0.1726,0.1742,0.1724,0.1751,0.1744,0.1745,0.1773,0.1757,0.1757,0.1783,0.1801,0.1804,0.1807,0.1817,0.1822,0.1827,0,0,0,0,0,0,0.1666,0.1677,0.1667,0.1723,0.172,0.1725,0.1756,0.1736,0.1753,0.1753,0.1744,0.1746,0.1763,0.1768,0.1749,0.1808,0.1794,0.1797,0.1802,0.1807,0.1811,0.1843,0.1757,0,0,0,0,0,0.1682,0.1714,0.1712,0.1747,0.1757,0.1746,0.1755,0.1752,0.1752,0.1761,0.177,0.1777,0.1778,0.1784,0.1801,0.1816,0.1831,0.184,0.1844,0.1847,0.1876,0.1906,0.1915,0.1818,0.1818,0.1818,0,0,0.169,0.1711,0.1719,0.1756,0.1763,0.1761,0.1757,0.1773,0.1764,0.1755,0.1778,0.1788,0.1784,0.1814,0.1824,0.1817,0.188,0.1851,0.1853,0.1881,0.191,0.1919,0.1928,0.182,0.1819,0.1819,0,0,0.1719,0.1763,0.1788,0.1789,0.1796,0.1791,0.1786,0.1796,0.1813,0.181,0.1809,0.1842,0.1835,0.1869,0.1866,0.1901,0.1897,0.1897,0.1943,0.1971,0.1979,0.1987,0.2002,0.2011,0.1901,0.1901,0.1901,0,0.1726,0.1771,0.1795,0.181,0.1808,0.1794,0.1795,0.1802,0.1806,0.1823,0.1822,0.1863,0.1871,0.19,0.1924,0.1914,0.1914,0.1917,0.1975,0.1983,0.1991,0.2005,0.2015,0.1902,0.1902,0.1902,0.1902,0,0.1743,0.1786,0.1808,0.1814,0.1816,0.1829,0.1815,0.1834,0.1833,0.1837,0.1888,0.1923,0.1951,0.1962,0.1948,0.2011,0.1988,0.197,0.196,0.2001,0.2014,0.2024,0.1904,0.1903,0.1903,0.1903,0,0,0.1736,0.1807,0.1807,0.1828,0.1825,0.1827,0.1823,0.1837,0.1843,0.1883,0.1912,0.1965,0.2005,0.2012,0.2027,0.207,0.2123,0.2046,0.2047,0.2056,0.2168,0.2149,0.2157,0.2097,0.2099,0.2101,0.2149,0,0.1742,0.1789,0.1808,0.1822,0.1851,0.1842,0.1841,0.184,0.1856,0.189,0.1948,0.1979,0.2009,0.2031,0.2085,0.2117,0.2151,0.2111,0.2134,0.2135,0.2109,0.217,0.215,0.2192,0.2159,0.2161,0.2162,0,0.1742,0.1786,0.1818,0.1869,0.1877,0.1865,0.1876,0.1875,0.1901,0.1918,0.1973,0.1997,0.2089,0.2087,0.22,0.2163,0.2176,0.22,0.2201,0.2195,0.2136,0.215,0.2211,0.2185,0.2177,0.2175,0.2174,0,0.1732,0.1793,0.183,0.1834,0.1871,0.1882,0.1886,0.1895,0.1906,0.194,0.1951,0.2045,0.209,0.2153,0.2227,0.22,0.233,0.2285,0.2281,0.2278,0.2279,0.2273,0.232,0.2348,0.2347,0.2347,0.2347,0,0.1746,0.1771,0.1837,0.185,0.1868,0.1897,0.1913,0.1911,0.1941,0.195,0.1983,0.2015,0.2106,0.218,0.2236,0.2316,0.2338,0.232,0.2305,0.228,0.2274,0.2265,0.2273,0.2349,0.2349,0.2348,0.2348,0,0.1721,0.1775,0.1802,0.1854,0.1868,0.1865,0.1894,0.1913,0.194,0.1948,0.1954,0.2007,0.2096,0.219,0.2289,0.232,0.2335,0.24,0.2365,0.2346,0.2294,0.2304,0.2122,0.2077,0.2398,0.2399,0.2399,0,0.1721,0.1744,0.1767,0.1766,0.1789,0.1814,0.1831,0.1881,0.1899,0.1942,0.1946,0.2019,0.2059,0.2221,0.2297,0.2393,0.232,0.2406,0.2361,0.2322,0.2322,0.2085,0.2045,0.2359,0.2359,0.2358,0.2358,0,0.17,0.1693,0.1701,0.1697,0.1715,0.1738,0.1779,0.1794,0.1854,0.1865,0.1893,0.1931,0.2064,0.2163,0.2291,0.2343,0.2297,0.24,0.238,0.2333,0.2061,0.2001,0.2283,0.2356,0.2356,0.2356,0.2357,0.2357,0.1638,0.1635,0.1641,0.1625,0.1629,0.166,0.1664,0.1724,0.1745,0.1763,0.183,0.1877,0.2086,0.2254,0.2261,0.2325,0.2226,0.2328,0.2354,0.2119,0.2048,0.2323,0.236,0.236,0.236,0.236,0.2361,0,0.1598,0.1599,0.1585,0.157,0.1538,0.158,0.1622,0.1626,0.1633,0.1704,0.1727,0.1924,0.2062,0.2197,0.2364,0.2327,0.212,0.2304,0.2019,0.1996,0.2294,0.2271,0.2266,0.2266,0.2266,0.2266,0.2266,0.2266,0.1576,0.1571,0.1589,0.1514,0.1483,0.1463,0.1477,0.1478,0.1525,0.1588,0.1681,0.1787,0.2088,0.2318,0.2367,0.2322,0.2129,0.1996,0.1966,0.2278,0.2281,0.2284,0.2263,0.2256,0.2256,0.1529,0.1525,0.1522]},{"header":{"parameterUnit":"m.s-1","parameterCategory":2,"la1":30.2991,"la2":30.254,"lo1":-89.0895,"lo2":-89.0444,"dy":0.0017,"dx":0.0017,"nx":28,"ny":28,"refTime":"2025-05-20T03:00:00:Z","depth":"0","parameterNumber":3,"parameterNumberName":"V-component_of_CURRENTS"},"data":[0,0,0,0,0,0,0,0,0,0,0,0,0,0,0,0,0,0,0,0,0,0,0,0,0,0,0,0,0,0,0,0,0,0,0,0,0,0,0,0,0,0,0,0,0,0,0,0,0,0,0,0,0,0,0,0,0,0,0.0617,0.0617,0,0.0607,0.0607,0.0607,0.0595,0.0596,0.0596,0.0596,0.0466,0.0463,0.0459,0,0,0,0,0,0,0,0,0,0,0,0,0,0.0596,0.0597,0.0617,0.0617,0.0618,0.0607,0.0607,0.0606,0.0595,0.0596,0.0596,0.0596,0.0467,0.0463,0.0459,0,0,0,0,0,0,0,0,0,0,0,0,0,0.0595,0.0597,0.0617,0.0613,0.0613,0.0607,0.0607,0.0606,0.0595,0.0596,0.0596,0.0596,0.0469,0.0464,0.0458,0.0421,0,0,0.0442,0.044,0,0,0,0,0,0,0,0,0.0595,0.0595,0.0614,0.0614,0.0613,0.0606,0.0552,0.0539,0.0595,0.0598,0.0596,0.0596,0.0504,0.0496,0.049,0.0415,0.0409,0.0441,0.0438,0.0436,0.0434,0,0,0,0,0,0,0,0.0595,0.0595,0.061,0.0614,0.0614,0.0602,0.0602,0.055,0.0545,0.0598,0.0598,0.0602,0.0502,0.0495,0.0487,0.0407,0.0442,0.0437,0.0433,0.0431,0.0312,0.0313,0,0,0,0,0,0,0.0604,0.0596,0.061,0.061,0.0608,0.0603,0.0602,0.0605,0.0548,0.0542,0.0602,0.0602,0.0505,0.0493,0.0482,0.044,0.0436,0.0431,0.0428,0.0312,0.0312,0.0313,0,0,0,0,0,0,0.0604,0.0606,0.0611,0.0605,0.0605,0.0603,0.0606,0.0605,0.0597,0.0553,0.0544,0.0596,0.0504,0.0489,0.0442,0.0434,0.0428,0.0423,0.0312,0.0312,0.0313,0.0351,0,0,0,0,0,0,0.0603,0.0605,0.0617,0.0606,0.0606,0.0606,0.0606,0.0605,0.0601,0.06,0.0544,0.0533,0.0503,0.045,0.0436,0.0427,0.0419,0.0312,0.0312,0.0312,0.035,0.0353,0.0355,0,0,0,0,0,0.0603,0.0625,0.0618,0.062,0.062,0.0606,0.0604,0.0601,0.06,0.0594,0.0563,0.0535,0.0441,0.0445,0.0429,0.0418,0.0312,0.0312,0.0312,0.0349,0.0352,0.0355,0,0,0,0,0,0,0.0645,0.0626,0.0618,0.0639,0.062,0.0605,0.0616,0.0599,0.0572,0.0575,0.0527,0.0513,0.047,0.0439,0.0445,0.0387,0.0375,0.0372,0.0408,0.0411,0.0413,0.0465,0.0415,0,0,0,0,0,0.0654,0.0655,0.0632,0.0652,0.0644,0.0625,0.0622,0.0611,0.0587,0.0576,0.0545,0.0506,0.0458,0.0431,0.0393,0.0351,0.0342,0.0338,0.034,0.0343,0.0375,0.0338,0.034,0.0313,0.0313,0.0313,0,0,0.0681,0.0671,0.0676,0.0659,0.0651,0.0644,0.0623,0.0621,0.0622,0.0563,0.0561,0.051,0.045,0.0414,0.0392,0.0385,0.0347,0.0343,0.0345,0.0377,0.0338,0.0341,0.0343,0.0313,0.0313,0.0313,0,0,0.073,0.072,0.0731,0.0706,0.0688,0.0671,0.0666,0.0645,0.0642,0.0615,0.058,0.0535,0.0468,0.0435,0.0402,0.0394,0.0361,0.037,0.042,0.0382,0.0384,0.0386,0.0386,0.0387,0.0371,0.0371,0.0371,0,0.0756,0.0771,0.0734,0.0729,0.0723,0.0682,0.0686,0.0673,0.0643,0.0645,0.0623,0.0545,0.0485,0.0442,0.0441,0.0401,0.0387,0.0409,0.0386,0.0388,0.0389,0.0388,0.039,0.0372,0.0372,0.0372,0.0372,0,0.079,0.0807,0.0814,0.0789,0.0772,0.0771,0.0738,0.0733,0.0717,0.0703,0.067,0.0598,0.0555,0.0516,0.0471,0.0447,0.0437,0.0393,0.0382,0.0395,0.0392,0.0393,0.0375,0.0375,0.0374,0.0373,0,0,0.0808,0.0835,0.0829,0.084,0.08,0.0788,0.0794,0.0783,0.0795,0.0757,0.076,0.0679,0.0648,0.0612,0.0544,0.051,0.0492,0.0462,0.0459,0.047,0.0436,0.0436,0.0437,0.0433,0.0434,0.0434,0.0434,0,0.0838,0.0869,0.0863,0.0884,0.0891,0.0859,0.087,0.0851,0.0831,0.0824,0.0761,0.0728,0.068,0.0643,0.0606,0.0516,0.0495,0.0499,0.0417,0.0416,0.042,0.0438,0.0444,0.0445,0.0434,0.0435,0.0435,0,0.0836,0.0866,0.0904,0.0942,0.094,0.0946,0.0942,0.0946,0.0924,0.0911,0.0879,0.082,0.0773,0.071,0.0626,0.0628,0.0553,0.0489,0.0485,0.0481,0.0418,0.0428,0.0446,0.036,0.0435,0.0435,0.0435,0,0.0821,0.0878,0.0921,0.092,0.0953,0.0973,0.0987,0.0975,0.0991,0.0961,0.0957,0.0898,0.0851,0.077,0.0652,0.0631,0.0555,0.0499,0.0443,0.0443,0.0435,0.0434,0.0371,0.0446,0.0446,0.0446,0.0446,0,0.0817,0.0844,0.093,0.0933,0.0984,0.0997,0.1034,0.1036,0.1051,0.1069,0.1006,0.0994,0.0858,0.0788,0.0688,0.0591,0.0587,0.048,0.0444,0.0449,0.0449,0.0362,0.036,0.0446,0.0446,0.0446,0.0446,0,0.0768,0.0829,0.0871,0.0944,0.0972,0.0993,0.1063,0.1101,0.1115,0.1129,0.1122,0.1063,0.0984,0.0863,0.0716,0.0636,0.051,0.049,0.0529,0.0498,0.0373,0.0374,0.0336,0.0339,0.0448,0.0448,0.0448,0,0.0754,0.0777,0.0853,0.0898,0.0936,0.0996,0.1052,0.1105,0.1151,0.1175,0.1187,0.1117,0.1073,0.0901,0.0723,0.0581,0.0513,0.0499,0.0456,0.0394,0.0368,0.0345,0.0349,0.0464,0.0464,0.0464,0.0464,0,0.0726,0.0747,0.0784,0.0877,0.0949,0.1029,0.1118,0.1168,0.1237,0.1261,0.129,0.1261,0.1085,0.0939,0.0739,0.0624,0.0488,0.0497,0.0405,0.0376,0.0376,0.0351,0.0458,0.0465,0.0465,0.0465,0.0465,0.0465,0.0703,0.0725,0.0798,0.0881,0.0961,0.1083,0.1155,0.1262,0.1345,0.1426,0.1382,0.1403,0.1192,0.0913,0.0711,0.0431,0.0472,0.0364,0.0375,0.0357,0.0356,0.0494,0.0468,0.0468,0.0468,0.0468,0.0468,0,0.0707,0.0755,0.0826,0.0935,0.1018,0.1072,0.1222,0.1316,0.1428,0.1527,0.1558,0.1556,0.1244,0.0959,0.0583,0.0368,0.0265,0.0262,0.0219,0.0231,0.0314,0.0307,0.0278,0.0278,0.0278,0.0278,0.0278,0.0278,0.0726,0.0795,0.0846,0.0992,0.1058,0.1195,0.1285,0.1421,0.1549,0.174,0.1852,0.1931,0.1825,0.0964,0.0447,0.0296,0.0179,0.0118,0.0097,0.0122,0.013,0.0138,0.0124,0.0058,0.0057,-0.0005,-0.0006,-0.0006]}],[{"header":{"parameterUnit":"m.s-1","parameterCategory":2,"la1":30.2991,"la2":30.254,"lo1":-89.0895,"lo2":-89.0444,"dy":0.0017,"dx":0.0017,"nx":28,"ny":28,"refTime":"2025-05-20T03:00:00:Z","depth":"2","parameterNumber":2,"parameterNumberName":"U-component_of_CURRENTS"},"data":[0,0,0,0,0,0,0,0,0,0,0,0,0,0,0,0,0,0,0,0,0,0,0,0,0,0,0,0,0,0,0,0,0,0,0,0,0,0,0,0,0,0,0,0,0,0,0,0,0,0,0,0,0,0,0,0,0,0,0.1606,0.1605,0,0.1648,0.165,0.1651,0.1708,0.1708,0.1708,0.1708,0.1701,0.17,0.17,0,0,0,0,0,0,0,0,0,0,0,0,0,0.1544,0.1546,0.1606,0.1605,0.1605,0.1648,0.165,0.1651,0.1708,0.1708,0.1708,0.1708,0.1701,0.17,0.17,0,0,0,0,0,0,0,0,0,0,0,0,0,0.1587,0.1546,0.1606,0.163,0.1632,0.1648,0.165,0.1652,0.1708,0.1708,0.1708,0.1708,0.1701,0.17,0.17,0.17,0,0,0.1699,0.1699,0,0,0,0,0,0,0,0,0.1585,0.1591,0.1627,0.1629,0.1631,0.1663,0.1624,0.1661,0.1708,0.1691,0.1708,0.1708,0.1676,0.1678,0.1702,0.1699,0.1699,0.1699,0.1699,0.1699,0.1699,0,0,0,0,0,0,0,0.1582,0.1589,0.1634,0.1627,0.1629,0.1628,0.1636,0.1633,0.1691,0.1692,0.1694,0.1681,0.1679,0.1703,0.1702,0.1699,0.1699,0.1699,0.1699,0.1699,0.1737,0.1738,0,0,0,0,0,0,0.1557,0.1587,0.1632,0.1634,0.1595,0.1629,0.1638,0.1662,0.1692,0.1694,0.1681,0.1684,0.1703,0.1703,0.1702,0.1724,0.1699,0.1699,0.1699,0.1736,0.1737,0.1738,0,0,0,0,0,0,0.1556,0.1562,0.163,0.16,0.1607,0.1629,0.1656,0.1662,0.1683,0.1682,0.1685,0.1692,0.1703,0.1702,0.1695,0.1723,0.1699,0.1699,0.1734,0.1736,0.1738,0.1754,0,0,0,0,0,0,0.1555,0.1563,0.1594,0.16,0.1608,0.1659,0.1655,0.1663,0.167,0.1674,0.1692,0.1693,0.1703,0.1696,0.1695,0.1722,0.1698,0.1733,0.1735,0.1737,0.1752,0.1756,0.1759,0,0,0,0,0,0.1553,0.161,0.1597,0.1602,0.1645,0.1659,0.1666,0.1686,0.167,0.17,0.1689,0.1692,0.1711,0.1695,0.1695,0.1723,0.1732,0.1735,0.1737,0.175,0.1755,0.1759,0,0,0,0,0,0,0.1611,0.1619,0.1606,0.1665,0.1658,0.1665,0.1699,0.1679,0.1698,0.1699,0.1688,0.1688,0.1701,0.1704,0.1687,0.1743,0.1729,0.1732,0.174,0.1744,0.1748,0.1786,0.1698,0,0,0,0,0,0.1628,0.1658,0.1654,0.1688,0.1699,0.1688,0.1698,0.1696,0.1695,0.1705,0.1715,0.1719,0.1714,0.1718,0.1732,0.1744,0.1756,0.1769,0.1773,0.1776,0.1809,0.1833,0.1841,0.1747,0.1747,0.1747,0,0,0.1633,0.1655,0.1659,0.1698,0.1704,0.1701,0.17,0.1717,0.1707,0.1697,0.1721,0.1729,0.1719,0.1746,0.1754,0.1748,0.1806,0.178,0.1782,0.1813,0.1836,0.1846,0.1854,0.1749,0.1748,0.1748,0,0,0.1645,0.1704,0.1716,0.1722,0.1727,0.1731,0.1725,0.1739,0.176,0.1753,0.1751,0.1782,0.177,0.1802,0.1796,0.1827,0.1821,0.1822,0.1874,0.1896,0.1904,0.1911,0.1918,0.1926,0.1828,0.1828,0.1828,0,0.1649,0.1664,0.1719,0.1727,0.1731,0.1732,0.1728,0.1742,0.1746,0.1765,0.1764,0.18,0.1805,0.1828,0.1855,0.184,0.1836,0.1849,0.19,0.1908,0.1915,0.1921,0.1929,0.1829,0.1829,0.1829,0.1829,0,0.1638,0.1652,0.167,0.1675,0.1715,0.1709,0.1731,0.1759,0.1768,0.1776,0.1827,0.1858,0.1886,0.1895,0.1879,0.1941,0.1914,0.1895,0.1886,0.1926,0.1929,0.1937,0.1831,0.183,0.183,0.183,0,0,0.1631,0.1645,0.165,0.1664,0.1684,0.1731,0.173,0.1757,0.1769,0.1813,0.1838,0.1894,0.1942,0.1946,0.196,0.2001,0.2048,0.1976,0.1977,0.1979,0.2078,0.1956,0.1953,0.202,0.2023,0.2024,0.2052,0,0.1584,0.1606,0.1617,0.1634,0.1668,0.1687,0.1703,0.1745,0.1772,0.1808,0.1868,0.1899,0.1944,0.1964,0.202,0.2049,0.2075,0.2042,0.2045,0.2046,0.1929,0.1961,0.1872,0.188,0.206,0.2062,0.2063,0,0.1574,0.1601,0.1615,0.1669,0.1687,0.1691,0.1777,0.1781,0.1815,0.1833,0.1891,0.1915,0.2013,0.2012,0.2129,0.2099,0.21,0.2117,0.2117,0.2012,0.194,0.1875,0.1889,0.2077,0.2076,0.2075,0.2074,0,0.1627,0.1622,0.1652,0.1658,0.1699,0.1725,0.1751,0.1807,0.1823,0.1854,0.1863,0.1963,0.2007,0.2069,0.212,0.2122,0.2199,0.2195,0.2084,0.2074,0.201,0.199,0.2241,0.2241,0.2241,0.2241,0.2241,0,0.1619,0.164,0.1678,0.1696,0.1727,0.1796,0.1826,0.183,0.1861,0.1874,0.1902,0.1928,0.2021,0.206,0.2112,0.2129,0.2195,0.2112,0.2081,0.2008,0.1989,0.2173,0.2165,0.2242,0.2241,0.2241,0.2241,0,0.1647,0.166,0.168,0.1726,0.1745,0.1786,0.1818,0.1843,0.1873,0.1878,0.1882,0.192,0.199,0.2044,0.2119,0.2098,0.2128,0.2088,0.1984,0.194,0.1996,0.1989,0.2017,0.2013,0.201,0.2007,0.2005,0,0.1649,0.1668,0.1693,0.1695,0.169,0.1749,0.1773,0.1824,0.184,0.1876,0.1874,0.1917,0.1925,0.1979,0.1982,0.2009,0.2052,0.1857,0.1855,0.201,0.1978,0.1976,0.1973,0.1781,0.1777,0.1774,0.1772,0,0.1621,0.162,0.1623,0.1633,0.1657,0.1682,0.1727,0.1739,0.1799,0.1803,0.1819,0.1826,0.1863,0.1839,0.1806,0.181,0.186,0.1787,0.1995,0.1826,0.1783,0.1752,0.1759,0.1743,0.1746,0.1748,0.1749,0.175,0.1557,0.154,0.155,0.1554,0.1571,0.1608,0.1614,0.1651,0.1668,0.1652,0.1728,0.1693,0.1699,0.1635,0.1605,0.1579,0.1694,0.1627,0.1641,0.1657,0.1599,0.155,0.1455,0.1457,0.1458,0.1459,0.1459,0,0.1454,0.1483,0.1481,0.1485,0.1478,0.1529,0.1573,0.1551,0.153,0.1545,0.1541,0.1422,0.1406,0.144,0.1377,0.1338,0.1367,0.1282,0.1342,0.1371,0.1397,0.1329,0.1113,0.1111,0.111,0.1109,0,0,0.1402,0.1359,0.1384,0.1395,0.1415,0.1404,0.1418,0.1367,0.1362,0.1274,0.1254,0.1335,0.1392,0.1232,0.1218,0.1167,0.1259,0.1125,0.141,0.1513,0.1537,0.1607,0.1534,0,0,0,0,0]},{"header":{"parameterUnit":"m.s-1","parameterCategory":2,"la1":30.2991,"la2":30.254,"lo1":-89.0895,"lo2":-89.0444,"dy":0.0017,"dx":0.0017,"nx":28,"ny":28,"refTime":"2025-05-20T03:00:00:Z","depth":"2","parameterNumber":3,"parameterNumberName":"V-component_of_CURRENTS"},"data":[0,0,0,0,0,0,0,0,0,0,0,0,0,0,0,0,0,0,0,0,0,0,0,0,0,0,0,0,0,0,0,0,0,0,0,0,0,0,0,0,0,0,0,0,0,0,0,0,0,0,0,0,0,0,0,0,0,0,0.0534,0.0534,0,0.053,0.053,0.053,0.0524,0.0525,0.0525,0.0525,0.0391,0.0388,0.0384,0,0,0,0,0,0,0,0,0,0,0,0,0,0.0517,0.0517,0.0534,0.0534,0.0535,0.053,0.053,0.053,0.0524,0.0525,0.0525,0.0525,0.0392,0.0388,0.0384,0,0,0,0,0,0,0,0,0,0,0,0,0,0.0518,0.0517,0.0534,0.0533,0.0533,0.053,0.053,0.053,0.0524,0.0525,0.0525,0.0525,0.0394,0.0388,0.0383,0.0347,0,0,0.0366,0.0364,0,0,0,0,0,0,0,0,0.0518,0.0518,0.0533,0.0533,0.0533,0.053,0.0475,0.0463,0.0524,0.0526,0.0525,0.0525,0.0426,0.0418,0.0417,0.034,0.0335,0.0366,0.0363,0.036,0.0359,0,0,0,0,0,0,0,0.0518,0.0519,0.0531,0.0533,0.0533,0.0525,0.0525,0.0473,0.0471,0.0526,0.0526,0.0528,0.0425,0.0422,0.0413,0.0333,0.0366,0.0361,0.0358,0.0356,0.0232,0.0232,0,0,0,0,0,0,0.0523,0.0519,0.0531,0.0531,0.0528,0.0526,0.0526,0.0529,0.0475,0.0468,0.0528,0.0528,0.0431,0.0419,0.0408,0.0364,0.036,0.0355,0.0352,0.0232,0.0232,0.0232,0,0,0,0,0,0,0.0523,0.0524,0.0531,0.0526,0.0527,0.0526,0.0529,0.0529,0.0523,0.0479,0.0469,0.0523,0.0431,0.0416,0.0364,0.0359,0.0353,0.0348,0.0232,0.0232,0.0232,0.0275,0,0,0,0,0,0,0.0522,0.0524,0.0537,0.0526,0.0527,0.0527,0.053,0.0529,0.0526,0.0525,0.0471,0.0459,0.043,0.0373,0.0359,0.0351,0.0343,0.0232,0.0232,0.0232,0.0273,0.0276,0.0278,0,0,0,0,0,0.0522,0.0548,0.0538,0.054,0.0542,0.0527,0.0527,0.0525,0.0525,0.0521,0.0489,0.0461,0.0363,0.0368,0.0352,0.0342,0.0232,0.0232,0.0232,0.0272,0.0275,0.0278,0,0,0,0,0,0,0.057,0.0549,0.0538,0.0562,0.0541,0.0527,0.054,0.0523,0.0497,0.05,0.0451,0.0437,0.0393,0.036,0.0367,0.0309,0.0296,0.0293,0.0332,0.0335,0.0337,0.0389,0.0339,0,0,0,0,0,0.058,0.058,0.0556,0.0574,0.0568,0.0548,0.0546,0.0536,0.0511,0.0501,0.0471,0.0431,0.038,0.0353,0.0313,0.0271,0.0259,0.0258,0.0261,0.0263,0.0295,0.0254,0.0257,0.0232,0.0232,0.0232,0,0,0.0604,0.0595,0.0596,0.0582,0.0573,0.0567,0.0547,0.0546,0.0546,0.0486,0.0487,0.0436,0.0371,0.0336,0.0313,0.0306,0.0264,0.0263,0.0265,0.0297,0.0255,0.0257,0.0259,0.0232,0.0232,0.0232,0,0,0.0637,0.0642,0.0639,0.0621,0.0602,0.0593,0.0588,0.057,0.0569,0.0542,0.0506,0.0461,0.0392,0.0358,0.0322,0.0313,0.0279,0.029,0.0341,0.0299,0.0302,0.0303,0.0297,0.0298,0.0291,0.0291,0.0291,0,0.0659,0.0643,0.0638,0.0628,0.0631,0.0603,0.0603,0.0596,0.0567,0.0571,0.055,0.0471,0.041,0.0362,0.0362,0.032,0.0304,0.033,0.0304,0.0306,0.0307,0.03,0.03,0.0293,0.0292,0.0292,0.0292,0,0.0667,0.0655,0.0659,0.0634,0.0658,0.0638,0.0642,0.0645,0.0638,0.0628,0.0596,0.0523,0.048,0.044,0.0393,0.0367,0.0355,0.0311,0.03,0.0312,0.0304,0.0303,0.0296,0.0295,0.0294,0.0294,0,0,0.0682,0.0653,0.0655,0.0659,0.0646,0.068,0.069,0.0691,0.0708,0.0676,0.0676,0.0598,0.0574,0.0535,0.0467,0.0429,0.0407,0.0381,0.0378,0.0385,0.0343,0.0271,0.0264,0.035,0.035,0.035,0.0336,0,0.0658,0.0665,0.0653,0.068,0.0693,0.0691,0.072,0.0746,0.0737,0.0733,0.0673,0.0641,0.0603,0.0565,0.0529,0.0435,0.0408,0.0418,0.0324,0.0323,0.0264,0.0261,0.0263,0.0245,0.0336,0.0336,0.0336,0,0.065,0.0661,0.0683,0.0724,0.0733,0.0757,0.0828,0.0838,0.0828,0.0817,0.0788,0.0732,0.0685,0.0625,0.0541,0.0548,0.0466,0.0397,0.0393,0.0319,0.025,0.0245,0.0241,0.0335,0.0335,0.0335,0.0335,0,0.0699,0.069,0.0723,0.0726,0.0764,0.0798,0.0833,0.0873,0.0895,0.0865,0.0861,0.0806,0.0757,0.0676,0.0541,0.0542,0.0426,0.0401,0.0273,0.0268,0.0252,0.0245,0.0338,0.0338,0.0338,0.0338,0.0338,0,0.0673,0.0695,0.075,0.0759,0.0821,0.0878,0.0929,0.0937,0.0957,0.0982,0.0915,0.09,0.0762,0.0668,0.0565,0.0424,0.045,0.03,0.0255,0.0265,0.0259,0.0321,0.0319,0.0337,0.0338,0.0338,0.0338,0,0.0682,0.0698,0.0732,0.0796,0.0827,0.0893,0.0967,0.1011,0.1031,0.1047,0.1038,0.0968,0.0872,0.0723,0.0557,0.0444,0.031,0.0238,0.0272,0.023,0.0191,0.0192,0.015,0.0147,0.0145,0.0143,0.0142,0,0.0672,0.0692,0.0764,0.081,0.0818,0.0912,0.0974,0.1028,0.1074,0.1094,0.1102,0.1009,0.0936,0.0687,0.0478,0.0292,0.0265,0.0128,0.0123,0.021,0.017,0.0175,0.0178,0.0132,0.0131,0.0129,0.0128,0,0.0641,0.0667,0.0697,0.08,0.0876,0.0954,0.1046,0.1093,0.1163,0.1181,0.1199,0.1143,0.0912,0.0689,0.0384,0.026,0.0166,0.0095,0.0164,0.0161,0.0185,0.0149,0.0155,0.0117,0.0118,0.0119,0.012,0.012,0.0619,0.0625,0.0698,0.08,0.0889,0.1012,0.1086,0.1163,0.1239,0.1275,0.1252,0.117,0.0892,0.0517,0.0292,0.0081,0.0111,0.0008,0.0015,0.0023,0.0005,0.0021,-0.0078,-0.0078,-0.0078,-0.0078,-0.0078,0,0.0569,0.0635,0.0715,0.0837,0.0945,0.1004,0.1152,0.1209,0.1285,0.1295,0.1293,0.1024,0.0764,0.0512,0.0191,-0.0036,-0.0012,-0.0105,-0.0029,-0.0018,-0.0008,-0.0025,-0.0117,-0.0118,-0.0118,-0.0118,0,0,0.0556,0.0583,0.0638,0.086,0.0976,0.1113,0.1202,0.1262,0.1304,0.1271,0.1223,0.1128,0.0808,0.0543,0.0253,0.0085,0.0097,0.0054,0.0103,0.0237,0.025,0.0063,0.0049,0,0,0,0,0]}],[{"header":{"parameterUnit":"m.s-1","parameterCategory":2,"la1":30.2991,"la2":30.254,"lo1":-89.0895,"lo2":-89.0444,"dy":0.0017,"dx":0.0017,"nx":28,"ny":28,"refTime":"2025-05-20T03:00:00:Z","depth":"4","parameterNumber":2,"parameterNumberName":"U-component_of_CURRENTS"},"data":[0,0,0,0,0,0,0,0,0,0,0,0,0,0,0,0,0,0,0,0,0,0,0,0,0,0,0,0,0,0,0,0,0,0,0,0,0,0,0,0,0,0,0,0,0,0,0,0,0,0,0,0,0,0,0,0,0,0,-0.0119,-0.0119,0,-0.0197,-0.0199,-0.0201,-0.0229,-0.0228,-0.0226,-0.0225,0.0014,0.0019,0.0024,0,0,0,0,0,0,0,0,0,0,0,0,0,-0.017,-0.0169,-0.0119,-0.0119,-0.0119,-0.0197,-0.0199,-0.0201,-0.0229,-0.0228,-0.0226,-0.0225,0.0012,0.0018,0.0025,0,0,0,0,0,0,0,0,0,0,0,0,0,-0.0198,-0.0168,-0.0119,-0.0135,-0.0136,-0.0197,-0.0199,-0.0202,-0.023,-0.0228,-0.0226,-0.0224,0.001,0.0018,0.0026,0.0035,0,0,0.0049,0.0053,0,0,0,0,0,0,0,0,-0.0196,-0.0197,-0.0132,-0.0134,-0.0135,-0.0192,-0.0129,-0.0103,-0.023,-0.0206,-0.0225,-0.0223,-0.0019,-0.0009,-0.0048,0.0047,0.0057,0.005,0.0055,0.0058,0.006,0,0,0,0,0,0,0,-0.0194,-0.0195,-0.0161,-0.0132,-0.0134,-0.0197,-0.0198,-0.0127,-0.0125,-0.0208,-0.0207,-0.0199,-0.0019,-0.0056,-0.0042,0.006,0.005,0.0057,0.0062,0.0065,0.0189,0.0188,0,0,0,0,0,0,-0.0155,-0.0192,-0.0159,-0.0163,-0.0149,-0.0196,-0.0198,-0.0185,-0.0133,-0.0122,-0.02,-0.02,-0.0071,-0.0051,-0.0033,0.0101,0.0058,0.0065,0.007,0.0191,0.0189,0.0188,0,0,0,0,0,0,-0.0156,-0.0151,-0.0155,-0.0171,-0.0175,-0.0194,-0.0181,-0.0187,-0.0199,-0.0129,-0.0114,-0.0202,-0.0068,-0.0044,0.0094,0.0107,0.0069,0.0076,0.0192,0.019,0.0188,0.0296,0,0,0,0,0,0,-0.0157,-0.0151,-0.0162,-0.0168,-0.0172,-0.0217,-0.0182,-0.0189,-0.0193,-0.0193,-0.0124,-0.0103,-0.0065,0.0082,0.0101,0.0117,0.0082,0.0194,0.0191,0.0189,0.0294,0.0298,0.0301,0,0,0,0,0,-0.0159,-0.0191,-0.0162,-0.0159,-0.0174,-0.0218,-0.023,-0.0245,-0.0194,-0.0241,-0.0116,-0.0104,0.0075,0.0091,0.0113,0.0131,0.0195,0.0192,0.0189,0.0293,0.0297,0.0301,0,0,0,0,0,0,-0.0235,-0.0195,-0.0164,-0.0184,-0.02,-0.0219,-0.0266,-0.0233,-0.0188,-0.0159,-0.0059,-0.003,0.0096,0.0077,0.0092,0.014,0.0111,0.0112,0.0181,0.0186,0.0189,0.0022,0.0088,0,0,0,0,0,-0.0244,-0.0246,-0.0225,-0.0244,-0.0252,-0.0244,-0.0263,-0.026,-0.0206,-0.0191,-0.0062,0.0015,0.0084,0.0116,0.0188,0.0234,0.0202,0.0228,0.0232,0.0236,0.0104,0.0089,0.008,0.0178,0.0178,0.0178,0,0,-0.0285,-0.0253,-0.0263,-0.0259,-0.0272,-0.0289,-0.0257,-0.0292,-0.0282,-0.0159,-0.004,0.0083,0.0112,0.019,0.0228,0.0183,0.0225,0.0232,0.0237,0.0098,0.0085,0.0076,0.0067,0.0175,0.0176,0.0176,0,0,-0.0326,-0.0331,-0.0328,-0.0339,-0.0334,-0.0348,-0.0339,-0.0289,-0.0268,-0.0141,-0.0042,0.0045,0.022,0.0192,0.0201,0.0232,0.0285,0.0304,0.0157,0.0152,0.0144,0.0135,0.0242,0.0241,0.0259,0.0259,0.0259,0,-0.0356,-0.0337,-0.0349,-0.0337,-0.0345,-0.0354,-0.0357,-0.0371,-0.0249,-0.0189,-0.0097,0.0102,0.016,0.0143,0.0157,0.0232,0.0305,0.0174,0.016,0.0149,0.0138,0.0247,0.0245,0.0264,0.0263,0.0262,0.0262,0,-0.0381,-0.0366,-0.0382,-0.0352,-0.0387,-0.0413,-0.0409,-0.0391,-0.0291,-0.0209,-0.0096,-0.0019,0.0093,0.0112,0.0154,0.0099,0.0219,0.0226,0.0161,0.0135,0.0254,0.025,0.027,0.0269,0.0267,0.0266,0,0,-0.0401,-0.0391,-0.0385,-0.0361,-0.039,-0.0411,-0.0447,-0.044,-0.039,-0.0288,-0.0163,-0.0157,-0.0031,-0.0036,0.003,-0.0076,-0.0006,0.0039,0.0037,0.0163,0.0117,0.0134,0.0134,0.0073,0.0069,0.0066,0.0292,0,-0.0391,-0.037,-0.0372,-0.0374,-0.0376,-0.0419,-0.0447,-0.0445,-0.0344,-0.0199,-0.0229,-0.0043,-0.011,0.0031,-0.0089,0.0012,-0.0038,-0.0064,0.0094,0.0096,0.0128,0.0115,0.0053,0.0289,0.0288,0.0287,0.0287,0,-0.0377,-0.0366,-0.0368,-0.0359,-0.0366,-0.0392,-0.0415,-0.0417,-0.0333,-0.0228,-0.0151,0.0034,-0.0031,-0.0043,-0.0115,-0.0073,-0.0007,-0.002,-0.0007,-0.0092,0.0095,0.0272,0.0279,0.0279,0.028,0.028,0.0281,0,-0.0371,-0.0341,-0.0344,-0.0348,-0.0376,-0.0403,-0.0432,-0.0406,-0.0385,-0.0184,-0.0022,-0.0011,0.0089,0.003,0.0074,0.0064,0.0029,0.0055,0.009,0.0103,-0.0019,-0.0015,-0.0045,-0.0045,-0.0045,-0.0046,-0.0047,0,-0.0348,-0.0341,-0.0344,-0.0352,-0.0371,-0.039,-0.0371,-0.0383,-0.0322,-0.0236,-0.0001,0.0081,0.0109,0.019,0.0148,0.0109,0.012,0.0005,0.0103,0.0049,0.0056,-0.0009,-0.0008,-0.0037,-0.0039,-0.0041,-0.0043,0,-0.0345,-0.0347,-0.0339,-0.036,-0.0368,-0.0387,-0.0398,-0.0358,-0.0297,-0.0168,-0.0066,0.0168,0.0259,0.0304,0.0292,0.0238,0.0191,0.0192,0.0215,0.0324,0.0277,0.0281,0.0255,0.0256,0.0257,0.0258,0.0259,0,-0.0346,-0.0348,-0.0344,-0.035,-0.0363,-0.0377,-0.0385,-0.038,-0.0325,-0.0164,-0.0085,0.0154,0.0305,0.0366,0.0314,0.0319,0.0258,0.0338,0.0126,0.018,0.028,0.0283,0.0285,0.026,0.026,0.0261,0.0261,0,-0.0353,-0.0353,-0.0352,-0.0357,-0.0357,-0.0331,-0.033,-0.03,-0.026,-0.0191,-0.0005,0.0165,0.0302,0.0353,0.0426,0.0358,0.0319,0.0346,0.0341,0.0143,0.0187,0.0286,0.0287,0.0264,0.0264,0.0263,0.0263,0,-0.0367,-0.0356,-0.0344,-0.0354,-0.0345,-0.0289,-0.0272,-0.0199,-0.0165,-0.0027,-0.0005,0.0206,0.0287,0.0373,0.0361,0.0386,0.032,0.0303,0.0298,0.0294,0.0178,0.0232,0.0354,0,0,0,0,0,-0.0362,-0.0343,-0.0341,-0.0324,-0.0306,-0.0293,-0.0243,-0.0216,-0.0171,-0.0041,-0.0038,0.0097,0.0214,0.0297,0.0316,0.0294,0.0285,0.0311,0.0254,0.0283,0.0279,0.0125,0,0,0,0,0,0,-0.0351,-0.0344,-0.0331,-0.0297,-0.0283,-0.0232,-0.0186,-0.0141,-0.0066,-0.0023,0.0065,0.0068,0.0192,0.019,0.0306,0.031,0.0272,0.0349,0.0349,0.0285,0.0282,0.0278,0.0119,0,0,0,0,0]},{"header":{"parameterUnit":"m.s-1","parameterCategory":2,"la1":30.2991,"la2":30.254,"lo1":-89.0895,"lo2":-89.0444,"dy":0.0017,"dx":0.0017,"nx":28,"ny":28,"refTime":"2025-05-20T03:00:00:Z","depth":"4","parameterNumber":3,"parameterNumberName":"V-component_of_CURRENTS"},"data":[0,0,0,0,0,0,0,0,0,0,0,0,0,0,0,0,0,0,0,0,0,0,0,0,0,0,0,0,0,0,0,0,0,0,0,0,0,0,0,0,0,0,0,0,0,0,0,0,0,0,0,0,0,0,0,0,0,0,-0.0145,-0.0146,0,-0.0259,-0.026,-0.0261,-0.0331,-0.0332,-0.0332,-0.0332,-0.0398,-0.0399,-0.04,0,0,0,0,0,0,0,0,0,0,0,0,0,-0.0097,-0.0096,-0.0145,-0.0146,-0.0148,-0.0259,-0.026,-0.0262,-0.0331,-0.0332,-0.0332,-0.0333,-0.0397,-0.0399,-0.04,0,0,0,0,0,0,0,0,0,0,0,0,0,-0.0154,-0.0096,-0.0145,-0.0196,-0.0202,-0.0258,-0.026,-0.0262,-0.0331,-0.0332,-0.0332,-0.0333,-0.0397,-0.0399,-0.0401,-0.04,0,0,-0.0407,-0.0408,0,0,0,0,0,0,0,0,-0.015,-0.0155,-0.0187,-0.0193,-0.02,-0.0282,-0.0267,-0.0306,-0.0331,-0.0281,-0.0332,-0.0333,-0.0354,-0.036,-0.038,-0.0404,-0.0406,-0.0407,-0.0408,-0.0409,-0.041,0,0,0,0,0,0,0,-0.0146,-0.0151,-0.0189,-0.0189,-0.0196,-0.0251,-0.0259,-0.0276,-0.0311,-0.0286,-0.0291,-0.0305,-0.0357,-0.0378,-0.0382,-0.0407,-0.0407,-0.0409,-0.041,-0.0411,-0.0469,-0.0469,0,0,0,0,0,0,-0.0127,-0.0147,-0.0186,-0.0193,-0.0177,-0.0251,-0.026,-0.0254,-0.0313,-0.0323,-0.0304,-0.0308,-0.0374,-0.0379,-0.0384,-0.0394,-0.0409,-0.0411,-0.0412,-0.0468,-0.0469,-0.0469,0,0,0,0,0,0,-0.0125,-0.0128,-0.0181,-0.0175,-0.0185,-0.0251,-0.0244,-0.0256,-0.0317,-0.0327,-0.0336,-0.0358,-0.0375,-0.0381,-0.0363,-0.0397,-0.0412,-0.0414,-0.0468,-0.0469,-0.0469,-0.041,0,0,0,0,0,0,-0.0123,-0.0126,-0.0124,-0.0172,-0.0185,-0.0221,-0.0244,-0.0258,-0.0322,-0.0329,-0.0375,-0.038,-0.0376,-0.0359,-0.0364,-0.04,-0.0415,-0.0468,-0.0468,-0.0469,-0.0411,-0.0408,-0.0406,0,0,0,0,0,-0.012,-0.0102,-0.0123,-0.0128,-0.0175,-0.0222,-0.0234,-0.0283,-0.0325,-0.0343,-0.0334,-0.038,-0.037,-0.0358,-0.0365,-0.0403,-0.0467,-0.0468,-0.0469,-0.0413,-0.0409,-0.0406,0,0,0,0,0,0,-0.0075,-0.0109,-0.0132,-0.0125,-0.0177,-0.0234,-0.0246,-0.0308,-0.0327,-0.0335,-0.0351,-0.0352,-0.0357,-0.0385,-0.0373,-0.0425,-0.0442,-0.0444,-0.0397,-0.0394,-0.0391,-0.0425,-0.0417,0,0,0,0,0,-0.0064,-0.0071,-0.0115,-0.0122,-0.013,-0.0205,-0.0237,-0.0289,-0.0311,-0.0327,-0.0348,-0.0367,-0.0363,-0.0378,-0.038,-0.0397,-0.0412,-0.0439,-0.0436,-0.0433,-0.0467,-0.047,-0.047,-0.0472,-0.0472,-0.0472,0,0,-0.0046,-0.0075,-0.0075,-0.0116,-0.0149,-0.0169,-0.0225,-0.0282,-0.0312,-0.0326,-0.0344,-0.0351,-0.0361,-0.0358,-0.0371,-0.0388,-0.0433,-0.0434,-0.0431,-0.0468,-0.047,-0.047,-0.047,-0.0472,-0.0472,-0.0472,0,0,-0.0034,-0.0036,-0.0043,-0.0074,-0.0141,-0.0173,-0.02,-0.027,-0.0301,-0.0309,-0.0328,-0.0349,-0.0349,-0.037,-0.0375,-0.0372,-0.0406,-0.0395,-0.0419,-0.0419,-0.0419,-0.0419,-0.0399,-0.0398,-0.0406,-0.0406,-0.0406,0,-0.0038,-0.0032,-0.0057,-0.0076,-0.01,-0.0174,-0.0198,-0.0227,-0.0293,-0.0307,-0.0302,-0.0338,-0.0357,-0.0378,-0.0374,-0.0371,-0.0361,-0.0421,-0.0414,-0.0415,-0.0416,-0.0396,-0.0395,-0.0403,-0.0404,-0.0404,-0.0404,0,-0.0023,-0.003,-0.003,-0.0068,-0.0095,-0.0128,-0.0165,-0.0207,-0.0245,-0.0274,-0.0303,-0.0311,-0.034,-0.0364,-0.0359,-0.0406,-0.0389,-0.0392,-0.0416,-0.0412,-0.039,-0.0391,-0.0399,-0.04,-0.0401,-0.0402,0,0,-0.0033,-0.0026,-0.0032,-0.0048,-0.0099,-0.0127,-0.0148,-0.019,-0.0214,-0.0256,-0.0275,-0.0304,-0.0339,-0.0354,-0.0388,-0.042,-0.0406,-0.0418,-0.0419,-0.0388,-0.0382,-0.0375,-0.0375,-0.039,-0.0391,-0.0392,-0.0348,0,-0.0039,-0.0052,-0.0047,-0.007,-0.0082,-0.0123,-0.0137,-0.0188,-0.02,-0.0218,-0.0268,-0.0266,-0.0321,-0.0329,-0.0374,-0.0414,-0.0412,-0.0417,-0.0404,-0.0404,-0.039,-0.0378,-0.0394,-0.0349,-0.0349,-0.0349,-0.0349,0,-0.0045,-0.0058,-0.0067,-0.0088,-0.0092,-0.0115,-0.0157,-0.0174,-0.0201,-0.0208,-0.0239,-0.0235,-0.031,-0.0321,-0.0405,-0.0399,-0.0387,-0.0409,-0.0406,-0.0436,-0.0401,-0.0368,-0.0351,-0.0351,-0.0351,-0.035,-0.035,0,-0.0057,-0.0076,-0.0082,-0.0089,-0.0115,-0.014,-0.0159,-0.019,-0.0202,-0.0192,-0.0161,-0.0241,-0.0253,-0.0303,-0.0355,-0.036,-0.0415,-0.0411,-0.0384,-0.0381,-0.0424,-0.0426,-0.0412,-0.0412,-0.0413,-0.0413,-0.0413,0,-0.0059,-0.0076,-0.0097,-0.0093,-0.0127,-0.0152,-0.0179,-0.0185,-0.0211,-0.0204,-0.0155,-0.0154,-0.0243,-0.0266,-0.0329,-0.0381,-0.0381,-0.04,-0.038,-0.0395,-0.0393,-0.0422,-0.0424,-0.0411,-0.0411,-0.0412,-0.0412,0,-0.0067,-0.0067,-0.0085,-0.011,-0.0125,-0.0151,-0.0189,-0.0208,-0.0191,-0.0173,-0.015,-0.0111,-0.0137,-0.0198,-0.0276,-0.0322,-0.0381,-0.0365,-0.0366,-0.0345,-0.0344,-0.0343,-0.0346,-0.0346,-0.0346,-0.0345,-0.0345,0,-0.0052,-0.0067,-0.0089,-0.01,-0.0111,-0.016,-0.0195,-0.0216,-0.0222,-0.0154,-0.0137,-0.0093,-0.0078,-0.0159,-0.0255,-0.0338,-0.0336,-0.0335,-0.0372,-0.0362,-0.0342,-0.0342,-0.0342,-0.0345,-0.0345,-0.0345,-0.0344,0,-0.0047,-0.007,-0.0081,-0.0101,-0.013,-0.0161,-0.0198,-0.0203,-0.0207,-0.0174,-0.01,-0.0076,-0.0078,-0.016,-0.0195,-0.0268,-0.0352,-0.0332,-0.0334,-0.0368,-0.036,-0.0341,-0.0341,-0.0343,-0.0344,-0.0344,-0.0344,0,-0.0067,-0.0076,-0.0095,-0.0114,-0.0141,-0.016,-0.0174,-0.0185,-0.0191,-0.0116,-0.0119,-0.0062,-0.0076,-0.0119,-0.0189,-0.024,-0.0255,-0.0267,-0.0272,-0.0274,-0.0285,-0.0266,-0.0211,0,0,0,0,0,-0.0098,-0.0105,-0.0107,-0.0124,-0.0146,-0.0156,-0.0181,-0.0197,-0.0189,-0.0134,-0.0131,-0.0121,-0.014,-0.0135,-0.0185,-0.0214,-0.0292,-0.0275,-0.0315,-0.0338,-0.0339,-0.0367,0,0,0,0,0,0,-0.0124,-0.0136,-0.0116,-0.0138,-0.0143,-0.0171,-0.0178,-0.0167,-0.0144,-0.0119,-0.0126,-0.012,-0.0152,-0.0107,-0.0176,-0.0191,-0.022,-0.0289,-0.029,-0.0337,-0.0338,-0.0339,-0.0368,0,0,0,0,0]}]]